Time,TemperatureF,DewpointF,PressureIn,WindDirection,WindDirectionDegrees,WindSpeedMPH,WindSpeedGustMPH,Humidity,HourlyPrecipIn,Conditions,Clouds,dailyrainin,SoftwareType,DateUTC
2013-08-06 01:00:00,44.0,-99.9,-100.00,North,-999,-999.0,-999.0,-999,-99.99,,,0.00,,2013-08-06 07:00:00,
2013-08-06 02:00:00,43.0,-99.9,-100.00,North,0,0.0,0.0,-999,-99.99,,,0.00,,2013-08-06 08:00:00,
2013-08-06 02:52:00,43.0,-99.9,-100.00,North,0,0.0,0.0,-999,-99.99,,,0.00,,2013-08-06 08:52:00,
2013-08-06 03:00:00,43.0,-99.9,-100.00,North,0,0.0,0.0,-999,-99.99,,,0.00,,2013-08-06 09:00:00,
2013-08-06 04:00:00,42.0,-99.9,-100.00,North,0,0.0,0.0,-999,-99.99,,,0.00,,2013-08-06 10:00:00,
2013-08-06 05:00:00,40.0,-99.9,-100.00,North,0,0.0,0.0,-999,-99.99,,,0.00,,2013-08-06 11:00:00,
2013-08-06 05:53:00,40.0,-99.9,-100.00,North,0,0.0,0.0,-999,-99.99,,,0.00,,2013-08-06 11:53:00,
2013-08-06 06:00:00,40.0,-99.9,-100.00,North,-999,-999.0,-999.0,-999,-99.99,,,0.00,,2013-08-06 12:00:00,
2013-08-06 07:00:00,40.0,-99.9,-100.00,North,360,0.0,0.0,-999,-99.99,,,-99.99,,2013-08-06 13:00:00,
2013-08-06 08:00:00,48.0,-99.9,-100.00,North,360,0.0,0.0,-999,-99.99,,,0.00,,2013-08-06 14:00:00,
2013-08-06 09:00:00,57.0,-99.9,-100.00,North,1,0.0,0.0,-999,-99.99,,,0.00,,2013-08-06 15:00:00,
2013-08-06 09:52:00,57.0,-99.9,-100.00,North,1,0.0,0.0,-999,-99.99,,,0.00,,2013-08-06 15:52:00,
2013-08-06 10:00:00,64.0,-99.9,-100.00,North,0,0.0,0.0,-999,-99.99,,,0.00,,2013-08-06 16:00:00,
2013-08-06 11:00:00,66.0,-99.9,-100.00,North,0,0.0,4.0,-999,-99.99,,,0.00,,2013-08-06 17:00:00,
2013-08-06 11:52:00,66.0,-99.9,-100.00,North,0,0.0,4.0,-999,-99.99,,,0.00,,2013-08-06 17:52:00,
2013-08-06 12:00:00,67.0,-99.9,-100.00,North,0,0.0,8.0,-999,-99.99,,,0.00,,2013-08-06 18:00:00,
2013-08-06 12:52:00,67.0,-99.9,-100.00,North,0,0.0,8.0,-999,-99.99,,,0.00,,2013-08-06 18:52:00,
2013-08-06 13:00:00,72.0,-99.9,-100.00,North,0,1.0,8.0,-999,-99.99,,,0.00,,2013-08-06 19:00:00,
2013-08-06 14:00:00,67.0,-99.9,-100.00,North,-999,-999.0,-999.0,-999,-99.99,,,0.00,,2013-08-06 20:00:00,
2013-08-06 14:52:00,67.0,-99.9,-100.00,North,-999,-999.0,-999.0,-999,-99.99,,,0.00,,2013-08-06 20:52:00,
2013-08-06 16:00:00,54.0,-99.9,-100.00,North,0,0.0,0.0,-999,-99.99,,,0.00,,2013-08-06 22:00:00,
2013-08-06 16:53:00,54.0,-99.9,-100.00,North,0,0.0,0.0,-999,-99.99,,,0.00,,2013-08-06 22:53:00,
2013-08-06 17:00:00,55.0,-99.9,-100.00,North,-999,-999.0,-999.0,-999,-99.99,,,0.00,,2013-08-06 23:00:00,
2013-08-06 17:43:00,55.0,-99.9,-100.00,North,-999,-999.0,-999.0,-999,-99.99,,,0.00,,2013-08-06 23:43:00,
2013-08-06 17:52:00,55.0,-99.9,-100.00,North,-999,-999.0,-999.0,-999,-99.99,,,0.00,,2013-08-06 23:52:00,
2013-08-06 18:00:00,57.0,-99.9,-100.00,North,0,0.0,0.0,-999,-99.99,,,0.00,,2013-08-07 00:00:00,
2013-08-06 18:52:00,57.0,-99.9,-100.00,North,0,0.0,0.0,-999,-99.99,,,0.00,,2013-08-07 00:52:00,
2013-08-06 19:00:00,55.0,-99.9,-100.00,North,0,0.0,0.0,-999,-99.99,,,0.00,,2013-08-07 01:00:00,
2013-08-06 20:00:00,54.0,-99.9,-100.00,North,-999,-999.0,-999.0,-999,-99.99,,,0.00,,2013-08-07 02:00:00,
2013-08-06 21:00:00,54.0,-99.9,-100.00,North,0,0.0,0.0,-999,-99.99,,,0.00,,2013-08-07 03:00:00,
2013-08-06 21:52:00,54.0,-99.9,-100.00,North,0,0.0,0.0,-999,-99.99,,,0.00,,2013-08-07 03:52:00,
2013-08-06 22:00:00,51.0,-99.9,-100.00,North,360,0.0,0.0,-999,-99.99,,,0.00,,2013-08-07 04:00:00,
2013-08-06 23:00:00,48.0,-99.9,-100.00,North,360,0.0,0.0,-999,-99.99,,,0.00,,2013-08-07 05:00:00,